Location: Barnston
(51.8500°N, 0.4000°E)
Time: 14:59:53
(UTC+00:00)

Cosmos 1461 - Pass Details

Date: 26 September 2023
Orbit: 493 x 616 km, 65.0° (Epoch: 07 December)

Event Time Altitude Azimuth Distance (km) Brightness Sun altitude
Exits shadow 02:06:28 27° 74° (ENE) 1,219 5.0 -31.8°
Drops below altitude 10° 02:08:50 10° 53° (NE) 1,993 6.5 -31.5°
Enters shadow 03:06:44 -65° 225° (SW) 12,108 9.6 -24.8°
Maximum altitude 03:43:13 43° 321° (NW) 875 3.7 -19.9°
